This is the latest recevied weather packets stored in our database for station/object SK4BW-10. If no packets are shown the sender has not sent any weather packets the latest 1 day(s).
| Time | Temp. | Humidity | Pressure | Rain* | Wind** | Luminosity | Snow |
|---|---|---|---|---|---|---|---|
| 1778066090 | 8.89° C | 36% | 1010.8 hPa | - | - | - | - |
| 1778065193 | 7.22° C | 37% | 1011 hPa | - | - | - | - |
| 1778065189 | 7.78° C | 35% | 1010.9 hPa | - | - | - | - |
| 1778064293 | 7.78° C | 40% | 1011.2 hPa | - | - | - | - |
| 1778063394 | 6.67° C | 40% | 1011.3 hPa | - | - | - | - |
| 1778062497 | 6.67° C | 37% | 1011.4 hPa | - | - | - | - |
| 1778061585 | 6.67° C | 37% | 1011.4 hPa | - | - | - | - |
| 1778060684 | 7.22° C | 42% | 1011.3 hPa | - | - | - | - |
| 1778059783 | 6.11° C | 42% | 1011.4 hPa | - | - | - | - |
| 1778058882 | 6.67° C | 39% | 1011.5 hPa | - | - | - | - |
| 1778057985 | 5.56° C | 40% | 1011.8 hPa | - | - | - | - |
| 1778057982 | 6.11° C | 40% | 1011.5 hPa | - | - | - | - |
| 1778057084 | 5.56° C | 38% | 1011.7 hPa | - | - | - | - |
| 1778057081 | 5.56° C | 40% | 1011.8 hPa | - | - | - | - |
| 1778056180 | 5.56° C | 38% | 1011.7 hPa | - | - | - | - |
| 1778055282 | 5° C | 37% | 1011.9 hPa | - | - | - | - |
| 1778055278 | 5.56° C | 38% | 1011.7 hPa | - | - | - | - |
| 1778054382 | 4.44° C | 44% | 1011.9 hPa | - | - | - | - |
| 1778054378 | 5° C | 37% | 1011.9 hPa | - | - | - | - |
| 1778052580 | 3.33° C | 49% | 1011.8 hPa | - | - | - | - |
| 1778052577 | 3.33° C | 54% | 1011.7 hPa | - | - | - | - |
| 1778051676 | 3.33° C | 49% | 1011.8 hPa | - | - | - | - |
| 1778050779 | 2.78° C | 59% | 1011.6 hPa | - | - | - | - |
| 1778049875 | 2.78° C | 59% | 1011.6 hPa | - | - | - | - |
| 1778048977 | 1.67° C | 62% | 1011.4 hPa | - | - | - | - |
* Rain since midnight (hover to see other rain measurements)
** Current wind speed in m/s (hover to see current wind gust speed)